Location: Chanteloup
(48.8560°N, 2.7390°E)
Time: 23:15:47
(UTC+00:00)

Cosmos 2322 Rocket - Pass Details

Date: 01 June 2022
Orbit: 833 x 851 km, 71.0° (Epoch: 06 July)

Event Time Altitude Azimuth Distance (km) Brightness Sun altitude
Rises 20:43:19 0° 192° (SSW) 3,366 5.0 -8.1°
Reaches altitude 10° 20:45:46 10° 189° (S) 2,436 4.2 -8.3°
Maximum altitude 20:51:13 57° 112° (ESE) 976 2.3 -8.9°
Drops below altitude 10° 20:56:43 10° 35° (NE) 2,453 4.8 -9.5°
Sets 20:59:11 0° 31° (NNE) 3,392 5.6 -9.8°
